Orbital elements:
2008 ED8                                                 Earth MOID = 0.0034 AU
Epoch 2008 May 14.0 TT = JDT 2454600.5                  MPC
M  18.99925              (2000.0)            P               Q
n   0.30276601     Peri.    2.57220     -0.99111643     -0.13086868
a   2.1965005      Node   169.81589     +0.11950489     -0.95451822
e   0.5463201      Incl.    7.70257     +0.05836777     -0.26789617
P   3.26           H   24.3           G   0.15           U   5
Residuals in seconds of arc
080308 704  0.1-  0.5+    080309 H55  1.0+  0.3+    080309 474  0.1+  0.3+
080308 704  0.2-  0.1-    080309 H55  0.7+  0.2+    080309 474  0.1-  0.4+
080308 704  0.0   0.0     080309 G96 (4.1+  1.0+)   080309 474  0.8-  0.1+
080308 704  0.3-  0.0     080309 G96 (4.7+  1.2+)   080309 474  1.2-  0.2-
080308 704  0.3+  0.3+    080309 G96 (7.0+  1.3+)   080309 474  0.7-  0.5-
080308 246 (4.0-  1.1-)   080309 G96 (7.1+  1.9+)   080309 474  0.5-  0.1-
080308 246  0.4-  0.3+    080309 291  0.2+  0.6+    080309 474  0.3-  0.0
080308 246  1.3-  0.3-    080309 291 (2.0-  0.6-)   080309 474  0.6-  0.6+
080308 246  0.5-  0.5-    080309 291  0.8-  0.7-    080309 474  0.2-  0.0
080308 246  1.4-  0.7-    080309 G96  0.2+  0.1+    080309 474  0.6-  0.4-
080308 046  0.5+  0.6-    080309 G96  0.5+  0.2+    080309 E12  0.0   0.1-
080308 046  0.0   0.3-    080309 G96  0.8+  0.3+    080309 E12  0.1-  0.1-
080308 046  0.6+  0.2-    080309 G96  1.3+  0.2+    080309 E12  0.1+  0.1-
080308 046  0.5+  0.3-    080309 H68 (4.4+  1.9+)   080309 E12  0.0   0.0
080308 046  0.4-  0.3+    080309 H68 (4.4+  1.9+)   080309 E12  0.2-  0.1-
080308 046  0.0   0.1+    080309 H68 (4.1+  1.9+)   080309 E12  0.2+  0.2-
080308 046  0.4+  0.2+    080309 H68 (4.0+  1.9+)   080309 E12  0.2-  0.1-
080309 I77  0.1+  0.2+    080309 H68 (4.3+  2.0+)   080309 E12  0.2-  0.1-
080309 I77  0.3+  0.1+    080309 651 (1.8+  0.2+)   080309 E12  0.1-  0.0
080309 I77  0.9+  0.2+    080309 651  0.5-  0.3-    080309 D90  0.8+  0.2+
080309 I77  0.8+  0.0     080309 651  0.5-  0.5-    080309 D90  0.7+  0.1-
080309 I77  0.7+  0.2+    080309 474  0.6-  0.6+    080309 D90  0.4+  0.2+
080309 H55  0.2-  0.1-    080309 474  0.3-  0.1+    080309 D90  0.2+  0.3+
080309 H55  0.1-  0.0     080309 474  0.2-  0.2+    080309 D90  0.9+  0.2-
080309 H55  0.1+  0.0     080309 474  0.1+  0.1-
080309 H55  1.3+  0.4+    080309 474  0.0   0.2+

Ephemeris:
2008 ED8                 a,e,i = 2.20, 0.55, 8                   q = 0.9965
Date    TT    R. A. (2000) Decl.     Delta      r     Elong.  Phase     V
2008 03 05    06 21.59   -11 19.4    0.0264   1.000   107.8    70.8    18.9
2008 03 06    06 28.40   -10 58.2    0.0216   0.999   108.7    70.2    18.4
2008 03 07    06 39.18   -10 23.3    0.0168   0.998   110.6    68.5    17.8
2008 03 08    06 58.52   -09 17.2    0.0121   0.998   114.6    64.7    17.0
2008 03 09    07 41.72   -06 34.8    0.00751  0.997   124.8    54.8    15.7
2008 03 10    10 00.77   +03 18.6    0.00392  0.997   159.7    20.2    13.3
2008 03 11    14 35.49   +16 00.7    0.00474  0.997   131.8    48.0    14.5
2008 03 12    16 17.48   +15 39.8    0.00881  0.997   108.2    71.3    16.5
2008 03 13    16 52.19   +14 51.1    0.0134   0.997   100.6    78.6    17.7
2008 03 14    17 08.82   +14 20.4    0.0182   0.997    97.4    81.6    18.4
2008 03 15    17 18.46   +14 00.3    0.0230   0.997    95.8    82.8    19.0
2008 03 16    17 24.73   +13 46.3    0.0278   0.998    95.1    83.3    19.4
2008 03 17    17 29.13   +13 35.9    0.0327   0.998    94.8    83.3    19.8
2008 03 18    17 32.37   +13 27.9    0.0375   0.999    94.8    83.0    20.1
2008 03 19    17 34.86   +13 21.6    0.0423   1.000    95.0    82.5    20.3
2008 03 20    17 36.83   +13 16.5    0.0471   1.001    95.4    82.0    20.5
2008 03 21    17 38.41   +13 12.2    0.0519   1.003    95.8    81.3    20.7
2008 03 22    17 39.71   +13 08.7    0.0567   1.004    96.2    80.5    20.9
2008 03 23    17 40.79   +13 05.6    0.0615   1.006    96.8    79.7    21.0
2008 03 24    17 41.69   +13 03.0    0.0663   1.008    97.4    78.9    21.2
2008 03 25    17 42.44   +13 00.8    0.0710   1.010    98.0    78.0    21.3
2008 03 26    17 43.06   +12 58.8    0.0758   1.012    98.6    77.1    21.4
2008 03 27    17 43.59   +12 57.0    0.0805   1.014    99.3    76.2    21.5
2008 03 28    17 44.01   +12 55.4    0.0851   1.016   100.0    75.3    21.6
2008 03 29    17 44.35   +12 54.0    0.0898   1.019   100.7    74.3    21.7
2008 03 30    17 44.62   +12 52.6    0.0944   1.022   101.4    73.4    21.8
2008 03 31    17 44.81   +12 51.4    0.0991   1.024   102.2    72.4    21.9
2008 04 01    17 44.94   +12 50.2    0.104    1.027   102.9    71.4    21.9
2008 04 02    17 45.01   +12 49.0    0.108    1.031   103.7    70.5    22.0
2008 04 03    17 45.01   +12 47.8    0.113    1.034   104.5    69.5    22.1
2008 04 04    17 44.96   +12 46.6    0.117    1.037   105.3    68.5    22.1

Gareth V. Williams           (C) Copyright 2008 MPC           M.P.E.C. 2008-E72

Read MPEC 2008-E71 Read MPEC 2008-E73


Our Web policy. Index to the CBAT/MPC/ICQ pages.

